Regional Weather Roundup
Issued by NWS

Home | Current Version | Previous Version | Text Only | Print | Product List | Glossary Off
Versions: 1 2 3 4 5 6 7 8 9 10 11 12 13 14 15 16 17 18 19 20 21 22 23 24 25 26 27 28 29 30 31 32 33 34 35 36 37 38 39 40 41 42 43 44 45 46 47 48 49 50

000
ASUS43 KLMK 301010
RWRKY
KENTUCKY REGIONAL WEATHER ROUNDUP
NATIONAL WEATHER SERVICE LOUISVILLE KY
600 AM EDT SUN AUG 30 2015

NOTE "FAIR" INDICATES FEW OR NO CLOUDS BELOW 12,000 FEET
WITH NO SIGNIFICANT WEATHER AND/OR OBSTRUCTIONS TO VISIBILITY.

KYZ001>023-026-027-061>063-070>075-301100-
WESTERN AND SOUTH CENTRAL KENTUCKY

CITY           SKY/WX    TMP DP  RH WIND       PRES   REMARKS
PADUCAH        LGT RAIN  71  67  87 S5        30.04S
HENDERSON      CLOUDY    72  68  88 S3        30.04R
OWENSBORO      CLOUDY    71  69  93 SE9       30.07R
HOPKINSVILLE   MOCLDY    70  67  88 S6        30.07S
BOWLING GREEN  MOCLDY    67  65  93 CALM      30.10R FOG
GLASGOW        PTCLDY    67  67 100 CALM      30.10S
$$

KYZ024-025-028>034-038-045-046-053-301100-
NORTH CENTRAL KENTUCKY

CITY           SKY/WX    TMP DP  RH WIND       PRES   REMARKS
LOUISVILLE/SDF CLOUDY    72  66  81 S6        30.07R
LOUISVILLE/LOU MOCLDY    71  66  84 S3        30.08R
FORT KNOX      MOCLDY    68  65  93 S3        30.07R
$$

KYZ035>037-039>044-047>052-055>060-089>105-301100-
NORTHEAST KENTUCKY

CITY           SKY/WX    TMP DP  RH WIND       PRES   REMARKS
LEXINGTON      CLEAR     68  64  87 S5        30.11S
COVINGTON      PTCLDY    67  65  93 CALM      30.09R
FRANKFORT      CLEAR     67  65  93 S5        30.10R
$$

KYZ054-064>069-076>088-106>120-301100-
SOUTHEAST KENTUCKY

CITY           SKY/WX    TMP DP  RH WIND       PRES   REMARKS
JACKSON        CLEAR     66  63  90 CALM      30.15R
LONDON         MOCLDY    66  62  87 CALM      30.14S
SOMERSET       CLOUDY    66  66 100 CALM      30.14R
MIDDLESBORO    CLOUDY    63  63 100 CALM      30.17R
MONTICELLO     CLOUDY    67  67 100 CALM      30.15R
$$



USA.gov is the U.S. government's official web portal to all federal, state and local government web resources and services.